Location: Las Vegas
(36.1750°N, 115.1360°W)
Time: 06:29:22
(UTC-07:00)

OTV 5 (USA 277) - Visible Passes

Search period start: 23 October 2019 00:00
Search period end: 02 November 2019 00:00
Orbit: 310 x 324 km, 54.5° (Epoch: 17 October)

Date Brightness Start Highest point End Pass type
(mag) Time Alt. Az. Time Alt. Az. Time Alt. Az.
26 Oct ? 18:41:38 10° S 18:43:30 17° SE 18:43:54 16° ESE visible
27 Oct ? 18:55:13 10° SSW 18:57:53 58° SE 18:58:38 39° ENE visible
28 Oct ? 19:09:53 10° WSW 19:12:26 37° NW 19:13:13 29° N visible
29 Oct ? 19:25:28 10° WNW 19:27:09 15° NW 19:27:41 14° NNW visible
31 Oct ? 18:19:37 10° W 18:21:52 22° NW 18:24:07 10° NNE visible
01 Nov ? 18:36:13 10° NW 18:36:40 10° NNW 18:37:07 10° NNW visible
